User: anonymous   Login
Location: Unspecified
(0.0000°N, 0.0000°E)
Time: 16:05:29
(UTC+00:00)
Language:

AMOS 1 - Orbit

View from above orbital plane
View from above orbital plane
View from above satellite
View from above satellite

Ground track
Ground track

The orbit data is extracted from the following two-line orbital elements,

1 23865U 96030B   16207.09765722 -.00000065  00000-0  00000+0 0  9997
2 23865   6.5010  56.3296 0011745 109.9762 258.5481  0.97116567 73477
Epoch (UTC): 25 July 2016 02:20:37
Eccentricity: 0.0011745
inclination: 6.5010°
perigee height: 36644 km
apogee height: 36745 km
right ascension of ascending node: 56.3296°
argument of perigee: 109.9762°
revolutions per day: 0.97116567
mean anomaly at epoch: 258.5481°
orbit number at epoch: 7347

The dashed part of the orbit path shows where the satellite is in the earth's shadow,  

DLR